Flag for Uruguay Weather past 2 weeks in Melo, Uruguay

Now
64 °F

Clear.


Feels Like: 64 °F
Forecast: 59 / 83 °F
Wind: 7 mph from East

Location: Pelotas Airport

Current Time: Oct 25, 2014 at 2:28:34 AM

Latest Report: Oct 25, 2014 at 2:00 AM


Visibility: 10 mi

Pressure: 29.98 "Hg

Humidity: 100%

Dew point: 64 °F

Location of MeloLocation

Historic Weather in Melo — Graph

°F

Melo temperature yesterday

Maximum temperature yesterday: 77 °F (at 2:00 PM)
Minimum temperature yesterday: 59 °F (at 6:00 AM)
Average temperature yesterday: 68 °F

Past Weeks' High & Low Weather Summary

 TemperatureHumidityPressure
High79 °F (Oct 23, 2:00 PM)100% (Oct 10, 5:00 AM)30.24 "Hg (Oct 10, 5:00 AM)
Low52 °F (Oct 20, 7:00 AM)33% (Oct 14, 3:00 PM)29.65 "Hg (Oct 10, 1:00 AM)
Average64 °F89%30.01 "Hg
* Reported Oct 10 1:00 AM — Oct 25 1:00 AM, Melo, Weather by CustomWeather, © 2014

Note: Actual official high and low records may vary slightly from our data, if they occured in-between our weather recording intervals... More about our weather records

Advertising

Melo weather history for previous 24 hours

 ConditionsComfort  
Time TempWeatherWind HumidityBarometerVisibility
1:00 AM
Oct 25
66 °FClear.7 mph100%29.98 "Hg10 mi
12:00 AM66 °FPassing clouds.7 mph100%30.01 "HgN/A
11:00 PM
Oct 24
66 °FPassing clouds.7 mph100%29.98 "HgN/A
10:00 PM68 °FPassing clouds.8 mph94%29.98 "HgN/A
9:00 PM68 °FPassing clouds.5 mph94%29.98 "HgN/A
8:00 PM68 °FPassing clouds.7 mph94%29.98 "HgN/A
7:00 PM70 °FPartly sunny.13 mph88%29.95 "HgN/A
6:00 PM73 °FScattered clouds.14 mph83%29.95 "HgN/A
5:00 PM75 °FScattered clouds.10 mph69%29.95 "HgN/A
4:00 PM75 °FPassing clouds.10 mph69%29.95 "HgN/A
3:00 PM75 °FScattered clouds.12 mph69%29.98 "HgN/A
2:00 PM77 °FScattered clouds.13 mph69%29.98 "HgN/A
1:00 PM75 °FPartly sunny.12 mph74%30.01 "HgN/A
12:00 PM75 °FOvercast.13 mph69%30.01 "HgN/A
11:00 AM73 °FPartly sunny.10 mph78%30.04 "HgN/A
10:00 AM72 °FOvercast.6 mph78%30.04 "HgN/A
9:00 AM68 °FPartly sunny.2 mph94%30.01 "HgN/A
8:00 AM63 °FPartly sunny.No wind100%30.01 "Hg4 mi
7:00 AM61 °FPartly sunny.1 mph100%29.98 "Hg1 mi
6:00 AM59 °FPassing clouds.No wind100%29.95 "HgN/A
5:00 AM63 °FPassing clouds.2 mph100%29.95 "HgN/A
4:00 AM63 °FPassing clouds.3 mph100%29.95 "HgN/A
3:00 AM63 °FClear.3 mph100%29.98 "Hg10 mi
2:00 AM63 °FClear.No wind100%29.98 "Hg10 mi
Weather by CustomWeather, © 2014

See weather overviewHow to use our weather pages